Location: San Vito
(41.8833°N, 12.9833°E)
Time: 04:41:25
(UTC+00:00)

Cosmos 2061 Rocket - Pass Details

Date: 17 November 2019
Orbit: 965 x 1013 km, 82.9° (Epoch: 05 December)

Event Time Altitude Azimuth Distance (km) Brightness Sun altitude
Rises 05:08:33 0° 207° (SSW) 3,678 6.9 -9.7°
Reaches altitude 10° 05:11:13 10° 214° (SW) 2,727 6.2 -9.2°
Maximum altitude 05:17:05 42° 284° (WNW) 1,362 4.3 -8.2°
Drops below altitude 10° 05:22:56 10° 354° (N) 2,719 6.1 -7.1°
Sets 05:25:37 0° 2° (N) 3,667 6.8 -6.7°
